******** Week 361 almanac for PRN-1 ******** ID: 1 Health: 0 Eccentricity: 0.001612186432 Time of Applicability(s): 405504 Orbital Inclination(rad): 0.9581891149 Rate of Right Ascen(r/s): -7.966046103e-09 SQRT(A) (m 1/2): 5153.575195 Right Ascen at Week(rad): 3.010056424 Argument of Perigee(rad): 0.1045383939 Mean Anom(rad): 0.8216987555 Af0(s): 0.0002517272217 Af1(s/s): -7.275958e-12 week: 361 ******** Week 361 almanac for PRN-2 ******** ID: 2 Health: 0 Eccentricity: 0.01688766479 Time of Applicability(s): 405504 Orbital Inclination(rad): 0.9633902685 Rate of Right Ascen(r/s): -7.817468486e-09 SQRT(A) (m 1/2): 5153.543457 Right Ascen at Week(rad): 2.847631228 Argument of Perigee(rad): -0.8060233893 Mean Anom(rad): 2.299757031 Af0(s): 4.446678467e-05 Af1(s/s): 7.275958e-12 week: 361 ******** Week 361 almanac for PRN-3 ******** ID: 3 Health: 0 Eccentricity: 0.006527900696 Time of Applicability(s): 405504 Orbital Inclination(rad): 0.9934347204 Rate of Right Ascen(r/s): -7.748894201e-09 SQRT(A) (m 1/2): 5153.578613 Right Ascen at Week(rad): -2.286068799 Argument of Perigee(rad): 1.203533388 Mean Anom(rad): -1.29247319 Af0(s): 0.000428840686 Af1(s/s): -1.091394e-11 week: 361 ******** Week 361 almanac for PRN-4 ******** ID: 4 Health: 0 Eccentricity: 0.003735542297 Time of Applicability(s): 405504 Orbital Inclination(rad): 0.9704909218 Rate of Right Ascen(r/s): -7.737465153e-09 SQRT(A) (m 1/2): 5153.683594 Right Ascen at Week(rad): -1.215462561 Argument of Perigee(rad): -2.874578506 Mean Anom(rad): 1.680359482 Af0(s): 3.843739014e-05 Af1(s/s): 3.637979e-12 week: 361 ******** Week 361 almanac for PRN-5 ******** ID: 5 Health: 0 Eccentricity: 0.005417346954 Time of Applicability(s): 405504 Orbital Inclination(rad): 0.9800004043 Rate of Right Ascen(r/s): -7.886042771e-09 SQRT(A) (m 1/2): 5153.664062 Right Ascen at Week(rad): -2.345937493 Argument of Perigee(rad): 1.417916566 Mean Anom(rad): 2.348545934 Af0(s): -0.0001816355103 Af1(s/s): 0 week: 361 ******** Week 361 almanac for PRN-6 ******** ID: 6 Health: 0 Eccentricity: 0.003848075867 Time of Applicability(s): 405504 Orbital Inclination(rad): 0.9870531206 Rate of Right Ascen(r/s): -7.668890868e-09 SQRT(A) (m 1/2): 5153.600098 Right Ascen at Week(rad): 2.960875412 Argument of Perigee(rad): -0.5571956765 Mean Anom(rad): 0.01838642256 Af0(s): -0.0004838589111 Af1(s/s): 0 week: 361 ******** Week 361 almanac for PRN-7 ******** ID: 7 Health: 0 Eccentricity: 0.0205411911 Time of Applicability(s): 405504 Orbital Inclination(rad): 0.9512862014 Rate of Right Ascen(r/s): -7.794610391e-09 SQRT(A) (m 1/2): 5153.566406 Right Ascen at Week(rad): -0.2068162634 Argument of Perigee(rad): -1.989164496 Mean Anom(rad): -0.837923898 Af0(s): -0.0001266172852 Af1(s/s): -3.637979e-12 week: 361 ******** Week 361 almanac for PRN-8 ******** ID: 8 Health: 0 Eccentricity: 0.01158618927 Time of Applicability(s): 405504 Orbital Inclination(rad): 0.9431189521 Rate of Right Ascen(r/s): -7.988904198e-09 SQRT(A) (m 1/2): 5153.636719 Right Ascen at Week(rad): 1.840199456 Argument of Perigee(rad): 0.5264617572 Mean Anom(rad): 1.986214878 Af0(s): 0.0003790981811 Af1(s/s): -7.275958e-12 week: 361 ******** Week 361 almanac for PRN-9 ******** ID: 9 Health: 0 Eccentricity: 0.00334405899 Time of Applicability(s): 405504 Orbital Inclination(rad): 0.9646486122 Rate of Right Ascen(r/s): -7.817468486e-09 SQRT(A) (m 1/2): 5153.725098 Right Ascen at Week(rad): -1.27979388 Argument of Perigee(rad): 2.06782333 Mean Anom(rad): 2.576191904 Af0(s): 0.0006059541504 Af1(s/s): 0 week: 361 ******** Week 361 almanac for PRN-10 ******** ID: 10 Health: 0 Eccentricity: 0.01093673706 Time of Applicability(s): 405504 Orbital Inclination(rad): 0.9929673356 Rate of Right Ascen(r/s): -7.737465153e-09 SQRT(A) (m 1/2): 5153.606445 Right Ascen at Week(rad): -2.288577622 Argument of Perigee(rad): -2.255867429 Mean Anom(rad): -2.283169366 Af0(s): -0.0004665244019 Af1(s/s): 0 week: 361 ******** Week 361 almanac for PRN-11 ******** ID: 11 Health: 0 Eccentricity: 0.002201080322 Time of Applicability(s): 405504 Orbital Inclination(rad): 0.9639175744 Rate of Right Ascen(r/s): -7.886042771e-09 SQRT(A) (m 1/2): 5153.532227 Right Ascen at Week(rad): 2.97944347 Argument of Perigee(rad): -2.306032271 Mean Anom(rad): 1.120185726 Af0(s): -0.0003240799561 Af1(s/s): 1.455192e-11 week: 361 ******** Week 361 almanac for PRN-12 ******** ID: 12 Health: 0 Eccentricity: 0.00900888443 Time of Applicability(s): 405504 Orbital Inclination(rad): 0.9591119002 Rate of Right Ascen(r/s): -7.840326581e-09 SQRT(A) (m 1/2): 5153.710938 Right Ascen at Week(rad): 0.910737427 Argument of Perigee(rad): 1.562719334 Mean Anom(rad): -1.507085192 Af0(s): -0.0004800905395 Af1(s/s): 0 week: 361 ******** Week 361 almanac for PRN-13 ******** ID: 13 Health: 0 Eccentricity: 0.01001310349 Time of Applicability(s): 405504 Orbital Inclination(rad): 0.9761414838 Rate of Right Ascen(r/s): -7.657461821e-09 SQRT(A) (m 1/2): 5153.627441 Right Ascen at Week(rad): -1.104512607 Argument of Perigee(rad): 0.995592106 Mean Anom(rad): 1.7427928 Af0(s): 0.0005403844849 Af1(s/s): 0 week: 361 ******** Week 361 almanac for PRN-14 ******** ID: 14 Health: 0 Eccentricity: 0.006766319275 Time of Applicability(s): 405504 Orbital Inclination(rad): 0.9424837882 Rate of Right Ascen(r/s): -8.011762293e-09 SQRT(A) (m 1/2): 5153.592773 Right Ascen at Week(rad): 0.8559391841 Argument of Perigee(rad): -2.746305729 Mean Anom(rad): -1.658230236 Af0(s): 0.0005840975952 Af1(s/s): 0 week: 361 ******** Week 361 almanac for PRN-15 ******** ID: 15 Health: 0 Eccentricity: 0.01661157608 Time of Applicability(s): 405504 Orbital Inclination(rad): 0.9425377172 Rate of Right Ascen(r/s): -8.068907531e-09 SQRT(A) (m 1/2): 5153.647461 Right Ascen at Week(rad): -1.424128514 Argument of Perigee(rad): 1.503538985 Mean Anom(rad): 0.9891168795 Af0(s): 0.0003112674927 Af1(s/s): 3.637979e-12 week: 361 ******** Week 361 almanac for PRN-16 ******** ID: 16 Health: 0 Eccentricity: 0.01504325867 Time of Applicability(s): 405504 Orbital Inclination(rad): 0.9582370518 Rate of Right Ascen(r/s): -7.851755628e-09 SQRT(A) (m 1/2): 5153.595215 Right Ascen at Week(rad): 0.9276969778 Argument of Perigee(rad): 0.9305428567 Mean Anom(rad): 3.016754482 Af0(s): 0.0001771134644 Af1(s/s): 7.275958e-12 week: 361 ******** Week 361 almanac for PRN-17 ******** ID: 17 Health: 0 Eccentricity: 0.01265192032 Time of Applicability(s): 405504 Orbital Inclination(rad): 0.9588242788 Rate of Right Ascen(r/s): -7.817468486e-09 SQRT(A) (m 1/2): 5153.547852 Right Ascen at Week(rad): 1.945090636 Argument of Perigee(rad): -1.119687257 Mean Anom(rad): 1.922222488 Af0(s): -6.783068848e-05 Af1(s/s): -1.091394e-11 week: 361 ******** Week 361 almanac for PRN-18 ******** ID: 18 Health: 0 Eccentricity: 0.005760669708 Time of Applicability(s): 405504 Orbital Inclination(rad): 0.9720009341 Rate of Right Ascen(r/s): -7.817468486e-09 SQRT(A) (m 1/2): 5153.591797 Right Ascen at Week(rad): 2.955704593 Argument of Perigee(rad): -2.867000731 Mean Anom(rad): -0.06162063745 Af0(s): -0.0003188042358 Af1(s/s): 1.091394e-11 week: 361 ******** Week 361 almanac for PRN-19 ******** ID: 19 Health: 0 Eccentricity: 0.01116275787 Time of Applicability(s): 405504 Orbital Inclination(rad): 0.9580033594 Rate of Right Ascen(r/s): -7.817468486e-09 SQRT(A) (m 1/2): 5153.672852 Right Ascen at Week(rad): 1.988986979 Argument of Perigee(rad): 2.935708914 Mean Anom(rad): -2.55611271 Af0(s): 0.000547921228 Af1(s/s): 0 week: 361 ******** Week 361 almanac for PRN-20 ******** ID: 20 Health: 0 Eccentricity: 0.002274513245 Time of Applicability(s): 405504 Orbital Inclination(rad): 0.960058654 Rate of Right Ascen(r/s): -7.863184676e-09 SQRT(A) (m 1/2): 5153.70752 Right Ascen at Week(rad): -1.274227957 Argument of Perigee(rad): -1.998467999 Mean Anom(rad): -1.524137995 Af0(s): 3.768371582e-05 Af1(s/s): 2.182787e-11 week: 361 ******** Week 361 almanac for PRN-21 ******** ID: 21 Health: 0 Eccentricity: 0.0007591247559 Time of Applicability(s): 405504 Orbital Inclination(rad): 0.9628509784 Rate of Right Ascen(r/s): -8.068907531e-09 SQRT(A) (m 1/2): 5153.719727 Right Ascen at Week(rad): -2.280118257 Argument of Perigee(rad): -0.3046022955 Mean Anom(rad): -1.819940124 Af0(s): 0.0003225726074 Af1(s/s): 3.637979e-12 week: 361 ******** Week 361 almanac for PRN-22 ******** ID: 22 Health: 0 Eccentricity: 0.01207304001 Time of Applicability(s): 405504 Orbital Inclination(rad): 0.9576797854 Rate of Right Ascen(r/s): -7.851755628e-09 SQRT(A) (m 1/2): 5153.566895 Right Ascen at Week(rad): 0.9310514372 Argument of Perigee(rad): -0.9930435856 Mean Anom(rad): 2.569751881 Af0(s): -2.788594971e-05 Af1(s/s): 3.637979e-12 week: 361 ******** Week 361 almanac for PRN-23 ******** ID: 23 Health: 0 Eccentricity: 0.006047725677 Time of Applicability(s): 405504 Orbital Inclination(rad): 0.9879699138 Rate of Right Ascen(r/s): -7.794610391e-09 SQRT(A) (m 1/2): 5153.661133 Right Ascen at Week(rad): -2.320708827 Argument of Perigee(rad): -2.739302823 Mean Anom(rad): -1.202513231 Af0(s): 0.0004921493286 Af1(s/s): 3.637979e-12 week: 361 ******** Week 361 almanac for PRN-24 ******** ID: 24 Health: 0 Eccentricity: 0.01791667938 Time of Applicability(s): 405504 Orbital Inclination(rad): 0.9352632927 Rate of Right Ascen(r/s): -7.988904198e-09 SQRT(A) (m 1/2): 5153.591797 Right Ascen at Week(rad): -0.3154603778 Argument of Perigee(rad): 1.136706729 Mean Anom(rad): 0.1438372889 Af0(s): -6.707701416e-05 Af1(s/s): 1.818989e-11 week: 361 ******** Week 361 almanac for PRN-25 ******** ID: 25 Health: 0 Eccentricity: 0.01293420792 Time of Applicability(s): 405504 Orbital Inclination(rad): 0.947535139 Rate of Right Ascen(r/s): -7.954617056e-09 SQRT(A) (m 1/2): 5153.660156 Right Ascen at Week(rad): 0.816798331 Argument of Perigee(rad): 1.158264851 Mean Anom(rad): -1.636752258 Af0(s): 0.0003459365112 Af1(s/s): -3.637979e-12 week: 361 ******** Week 361 almanac for PRN-26 ******** ID: 26 Health: 0 Eccentricity: 0.01101398468 Time of Applicability(s): 405504 Orbital Inclination(rad): 0.928354387 Rate of Right Ascen(r/s): -8.148910863e-09 SQRT(A) (m 1/2): 5153.658203 Right Ascen at Week(rad): 0.7420804338 Argument of Perigee(rad): 0.7107825069 Mean Anom(rad): -2.457439845 Af0(s): -0.0002683080566 Af1(s/s): -3.637979e-12 week: 361 ******** Week 361 almanac for PRN-27 ******** ID: 27 Health: 0 Eccentricity: 0.01436853409 Time of Applicability(s): 405504 Orbital Inclination(rad): 0.9522209709 Rate of Right Ascen(r/s): -7.908900866e-09 SQRT(A) (m 1/2): 5153.615723 Right Ascen at Week(rad): 1.872325418 Argument of Perigee(rad): 0.8836032693 Mean Anom(rad): 2.088568773 Af0(s): -5.275720215e-05 Af1(s/s): -1.091394e-11 week: 361 ******** Week 361 almanac for PRN-28 ******** ID: 28 Health: 0 Eccentricity: 0.0004239082336 Time of Applicability(s): 405504 Orbital Inclination(rad): 0.9622158145 Rate of Right Ascen(r/s): -7.680319916e-09 SQRT(A) (m 1/2): 5153.749512 Right Ascen at Week(rad): -0.2324430303 Argument of Perigee(rad): -0.05236956483 Mean Anom(rad): -0.4626802142 Af0(s): -0.0004582339844 Af1(s/s): 7.275958e-12 week: 361 ******** Week 361 almanac for PRN-29 ******** ID: 29 Health: 0 Eccentricity: 0.003388404846 Time of Applicability(s): 405504 Orbital Inclination(rad): 0.9614787847 Rate of Right Ascen(r/s): -7.783181343e-09 SQRT(A) (m 1/2): 5153.705566 Right Ascen at Week(rad): 1.961847204 Argument of Perigee(rad): 2.743006323 Mean Anom(rad): 1.947368762 Af0(s): -0.0002848888916 Af1(s/s): 7.275958e-12 week: 361 ******** Week 361 almanac for PRN-30 ******** ID: 30 Health: 0 Eccentricity: 0.008097171783 Time of Applicability(s): 405504 Orbital Inclination(rad): 0.936557589 Rate of Right Ascen(r/s): -7.943188008e-09 SQRT(A) (m 1/2): 5153.697266 Right Ascen at Week(rad): -0.2159561074 Argument of Perigee(rad): -2.312925073 Mean Anom(rad): -1.018481227 Af0(s): 0.0001183268677 Af1(s/s): 1.455192e-11 week: 361 ******** Week 361 almanac for PRN-31 ******** ID: 31 Health: 0 Eccentricity: 0.01084661484 Time of Applicability(s): 405504 Orbital Inclination(rad): 0.9550612322 Rate of Right Ascen(r/s): -7.760323248e-09 SQRT(A) (m 1/2): 5153.520508 Right Ascen at Week(rad): -0.1825631882 Argument of Perigee(rad): 0.9372708754 Mean Anom(rad): -1.931062726 Af0(s): -0.0001281246338 Af1(s/s): 3.637979e-12 week: 361 ******** Week 361 almanac for PRN-32 ******** ID: 32 Health: 0 Eccentricity: 0.009372234344 Time of Applicability(s): 405504 Orbital Inclination(rad): 0.9676985974 Rate of Right Ascen(r/s): -7.783181343e-09 SQRT(A) (m 1/2): 5153.689941 Right Ascen at Week(rad): -1.262753061 Argument of Perigee(rad): -1.994918047 Mean Anom(rad): 2.659039225 Af0(s): -4.14520874e-05 Af1(s/s): 1.818989e-11 week: 361